EW9744 Weather Reports


Display with metric or nautical units.
time (UTC)temp
F
wind
direction
speed
MPH
gust
MPH
rain 1hr
in
rain 24hr
in
rain mn
in
humidity
%
barometer
mb
20260901033033 67 274 7.0 9.0 0.00 0.00 0.00 42 1011.1
20260901030108 68 272 7.0 9.0 0.00 0.00 0.00 43 1011.0
20260901024532 68 276 7.0 10.0 0.00 0.00 0.00 43 1011.0
20260901023030 67 275 7.0 9.0 0.00 0.00 0.00 43 1010.9
20260901021530 68 273 7.0 9.0 0.00 0.00 0.00 42 1010.9
20260901014530 70 270 5.0 7.0 0.00 0.00 0.00 39 1011.0
20260901013031 73 276 4.0 5.0 0.00 0.00 0.00 37 1011.1
20260901011530 76 292 2.0 4.0 0.00 0.00 0.00 37 1011.2
20260901010026 79 301 3.0 4.0 0.00 0.00 0.00 36 1011.2
20260901004604 83 318 2.0 4.0 0.00 0.00 0.00 34 1011.4
20260901003034 85 330 2.0 4.0 0.00 0.00 0.00 31 1011.5
20260901001529 84 34 0.0 5.0 0.00 0.00 0.00 28 1011.6
20260901000030 82 2 2.0 6.0 0.00 0.00 0.00 29 1011.8
20260831234530 81 29 3.0 7.0 0.00 0.00 0.00 28 1011.9
20260831233029 81 23 4.0 8.0 0.00 0.00 0.00 29 1012.0
20260831231531 80 27 4.0 7.0 0.00 0.00 0.00 30 1012.2
20260831230032 81 34 4.0 8.0 0.00 0.00 0.00 29 1012.4
20260831223031 81 37 5.0 12.0 0.00 0.00 0.00 30 1012.7
20260831221607 80 35 5.0 9.0 0.00 0.00 0.00 30 1012.9
20260831214530 79 44 5.0 13.0 0.00 0.00 0.00 32 1013.4
20260831213104 78 56 5.0 11.0 0.00 0.00 0.00 33 1013.6
20260831204528 76 49 5.0 12.0 0.00 0.00 0.00 37 1014.0
20260831203029 77 37 6.0 14.0 0.00 0.00 0.00 37 1014.2
20260831201532 75 50 4.0 12.0 0.00 0.00 0.00 39 1014.6
20260831194532 74 44 5.0 12.0 0.00 0.00 0.00 40 1015.0
20260831193031 72 51 6.0 14.0 0.00 0.00 0.00 42 1015.2
20260831191531 71 27 8.0 14.0 0.00 0.00 0.00 44 1015.5
20260831184530 69 34 6.0 12.0 0.00 0.00 0.00 51 1015.9
20260831183031 68 30 6.0 13.0 0.00 0.00 0.00 54 1016.2
20260831181530 67 34 5.0 10.0 0.00 0.00 0.00 56 1016.4
20260831180030 66 36 4.0 9.0 0.00 0.00 0.00 57 1016.5
20260831174531 65 28 5.0 11.0 0.00 0.00 0.00 58 1016.6
20260831173031 64 28 5.0 10.0 0.00 0.00 0.00 60 1016.6
20260831171532 64 24 4.0 9.0 0.00 0.00 0.00 61 1016.7
20260831170031 63 20 4.0 8.0 0.00 0.00 0.00 63 1016.8
20260831164603 63 28 4.0 7.0 0.00 0.00 0.00 64 1016.9
20260831163029 62 18 4.0 7.0 0.00 0.00 0.00 66 1016.9
20260831161530 61 18 3.0 7.0 0.00 0.00 0.00 67 1017.1
20260831160029 60 26 3.0 6.0 0.00 0.00 0.00 70 1017.1
20260831154606 59 22 2.0 4.0 0.00 0.00 0.00 73 1017.1
20260831153106 58 22 2.0 4.0 0.00 0.00 0.00 75 1017.1
20260831151531 57 22 2.0 4.0 0.00 0.00 0.00 76 1017.0
20260831150029 56 16 1.0 3.0 0.00 0.00 0.00 80 1016.9
20260831141606 51 315 0.0 1.0 0.00 0.00 0.00 88 1016.8
20260831140105 51 315 2.0 4.0 0.00 0.00 0.00 88 1016.7
20260831133106 50 290 3.0 5.0 0.00 0.00 0.00 88 1016.6
20260831131532 51 292 4.0 5.0 0.00 0.00 0.00 88 1016.6
20260831130030 51 290 4.0 6.0 0.00 0.00 0.00 88 1016.7
20260831124530 51 295 3.0 4.0 0.00 0.00 0.00 88 1016.7
20260831123033 50 292 3.0 5.0 0.00 0.00 0.00 87 1016.6
20260831121533 50 292 4.0 5.0 0.00 0.00 0.00 86 1016.6
20260831120029 50 277 4.0 5.0 0.00 0.00 0.00 85 1016.6
20260831114530 50 289 3.0 4.0 0.00 0.00 0.00 85 1016.7
20260831113107 50 300 3.0 4.0 0.00 0.00 0.00 85 1016.7
20260831110030 50 315 2.0 3.0 0.00 0.00 0.00 84 1016.8
20260831103032 51 315 2.0 4.0 0.00 0.00 0.00 83 1016.8
20260831101530 52 315 2.0 4.0 0.00 0.00 0.00 82 1016.8
20260831100029 52 290 3.0 4.0 0.00 0.00 0.00 82 1017.0
20260831094608 52 279 4.0 5.0 0.00 0.00 0.00 82 1017.1
20260831093029 52 270 4.0 5.0 0.00 0.00 0.00 82 1017.2
20260831091602 52 281 2.0 5.0 0.00 0.00 0.00 82 1017.3
20260831090033 52 292 3.0 5.0 0.00 0.00 0.00 82 1017.3
20260831084528 52 292 5.0 6.0 0.00 0.00 0.00 83 1017.4
20260831083033 52 292 4.0 5.0 0.00 0.00 0.00 83 1017.6
20260831081530 52 297 3.0 4.0 0.00 0.00 0.00 83 1017.7
20260831080031 52 295 3.0 5.0 0.00 0.00 0.00 82 1017.8
20260831074604 52 292 3.0 4.0 0.00 0.00 0.00 82 1017.8
20260831071603 53 273 3.0 5.0 0.00 0.00 0.00 81 1017.9
20260831064532 54 295 3.0 4.0 0.00 0.00 0.00 80 1017.9
20260831063030 54 292 3.0 5.0 0.00 0.00 0.00 79 1018.0
20260831061607 55 283 4.0 5.0 0.00 0.00 0.00 78 1018.2
20260831060027 55 307 2.0 5.0 0.00 0.00 0.00 78 1018.2
20260831054530 55 294 4.0 6.0 0.00 0.00 0.00 78 1018.3
20260831053035 55 280 5.0 7.0 0.00 0.00 0.00 78 1018.4
20260831051529 55 274 4.0 6.0 0.00 0.00 0.00 78 1018.4
20260831050026 55 237 4.0 6.0 0.00 0.00 0.00 78 1018.5
20260831044542 0 0 0.0 0.0 0.00 0.00 0.00 100
20260831043103 57 256 5.0 5.0 0.00 0.00 0.00 73 1018.5
20260831041531 58 263 3.0 5.0 0.00 0.00 0.00 70 1018.6
20260831040032 60 217 2.0 4.0 0.00 0.00 0.00 67 1018.6
20260831034605 60 197 2.0 5.0 0.00 0.00 0.00 66 1018.4